Flag for Germany Weather past 2 weeks in Warendorf, North Rhine-Westphalia, Germany

61 °F

Passing clouds.

Feels Like: 61 °F
Forecast: 56 / 64 °F
Wind: 5 mph from Southeast

Location: Muenster / Osnabrueck

Current Time: Oct 6, 2015 at 11:00:14 PM

Latest Report: Oct 6, 2015 at 10:20 PM

Visibility: N/A

Pressure: 29.65 "Hg

Humidity: 100%

Dew point: 61 °F

Location of WarendorfLocation

Historic Weather in Warendorf — Graph


Warendorf temperature yesterday

Maximum temperature yesterday: 64 °F (at 2:20 PM)
Minimum temperature yesterday: 48 °F (at 1:50 AM)
Average temperature yesterday: 56 °F

Past Weeks' High & Low Weather Summary

High66 °F (Oct 3, 4:50 PM)100% (Sep 23, 7:50 AM)30.66 "Hg (Sep 23, 7:50 AM)
Low34 °F (Oct 2, 7:20 AM)39% (Oct 2, 2:20 PM)29.50 "Hg (Sep 22, 4:50 PM)
Average54 °F82%30.16 "Hg
* Reported Sep 21 9:20 PM — Oct 6 9:50 PM, Warendorf, Weather by CustomWeather, © 2015

Note: Actual official high and low records may vary slightly from our data, if they occured in-between our weather recording intervals... More about our weather records


Warendorf weather history for previous 24 hours

Time TempWeatherWind HumidityBarometerVisibility
9:50 PM
Tue, Oct 6
61 °FPassing clouds.3 mph100%29.65 "HgN/A
9:20 PM63 °FLight rain. Partly cloudy.3 mph94%29.65 "HgN/A
8:50 PM63 °FLight rain. Partly cloudy.3 mph94%29.65 "HgN/A
8:20 PM63 °FLight rain. Partly cloudy.7 mph94%29.65 "HgN/A
7:50 PM63 °FLight rain. Partly sunny.3 mph88%29.62 "HgN/A
7:20 PM63 °FPartly sunny.3 mph88%29.62 "HgN/A
6:50 PM63 °FPartly sunny.3 mph88%29.62 "HgN/A
6:20 PM63 °FPartly sunny.3 mph94%29.62 "HgN/A
5:50 PM64 °FBroken clouds.2 mph83%29.62 "HgN/A
5:20 PM66 °FBroken clouds.5 mph78%29.59 "HgN/A
4:50 PM66 °FPartly sunny.5 mph83%29.62 "HgN/A
4:20 PM64 °FPartly sunny.3 mph83%29.62 "HgN/A
3:50 PM63 °FPartly sunny.2 mph88%29.62 "HgN/A
3:20 PM63 °FPartly sunny.5 mph83%29.62 "HgN/A
2:50 PM63 °FPartly sunny.6 mph83%29.62 "HgN/A
2:20 PM63 °FPartly sunny.6 mph83%29.62 "HgN/A
1:50 PM61 °FBroken clouds.8 mph88%29.65 "HgN/A
1:20 PM59 °FBroken clouds.8 mph94%29.65 "HgN/A
12:50 PM61 °FBroken clouds.10 mph88%29.65 "Hg6 mi
12:20 PM59 °FBroken clouds.8 mph94%29.62 "Hg5 mi
11:50 AM59 °FPartly sunny.9 mph94%29.62 "Hg5 mi
11:20 AM59 °FPartly sunny.12 mph94%29.62 "Hg5 mi
10:50 AM59 °FPartly sunny.9 mph94%29.59 "Hg4 mi
10:20 AM59 °FPartly sunny.7 mph94%29.59 "Hg4 mi
9:50 AM57 °FDrizzle. Fog.8 mph94%29.59 "Hg2 mi
9:20 AM57 °FDrizzle. Fog.7 mph94%29.59 "Hg2 mi
8:50 AM55 °FDrizzle. Fog.7 mph100%29.59 "Hg2 mi
8:20 AM55 °FDrizzle. Fog.7 mph100%29.59 "Hg2 mi
7:50 AM55 °FDrizzle. Fog.7 mph100%29.59 "Hg2 mi
7:20 AM55 °FDrizzle. Fog.8 mph100%29.59 "Hg2 mi
6:20 AM55 °FLight rain. Fog.7 mph94%29.62 "Hg2 mi
5:50 AM55 °FLight rain. Passing clouds.7 mph94%29.62 "HgN/A
5:20 AM55 °FLight rain. Partly cloudy.6 mph94%29.62 "HgN/A
4:50 AM55 °FLight rain. Clear.6 mph94%29.65 "HgN/A
4:20 AM55 °FLight rain. Clear.5 mph94%29.65 "HgN/A
3:50 AM55 °FLight rain. Passing clouds.6 mph94%29.68 "HgN/A
3:20 AM55 °FLight rain. Passing clouds.5 mph94%29.68 "HgN/A
2:50 AM55 °FLight rain. Clear.5 mph94%29.71 "HgN/A
2:20 AM55 °FLight rain. Partly cloudy.5 mph94%29.71 "HgN/A
1:50 AM57 °FLight rain. Clear.5 mph82%29.71 "HgN/A
1:20 AM59 °FLight rain. Passing clouds.6 mph77%29.74 "HgN/A
12:50 AM59 °FPassing clouds.5 mph77%29.74 "HgN/A
12:20 AM59 °FPassing clouds.6 mph77%29.74 "HgN/A
11:20 PM
Mon, Oct 5
59 °FPassing clouds.6 mph77%29.77 "HgN/A
Weather by CustomWeather, © 2015

See weather overviewHow to use our weather pages